Weather History for KJSO - October, 2012

Change the Weather History Date:

Tuesday, October 9, 2012

  Actual Average (KTYR) Record (KTYR)
Temperature  
Mean Temperature 61 °F 69 °F  
Max Temperature 75 °F 80 °F 95 °F (1963)
Min Temperature 47 °F 58 °F 34 °F (1917)
Degree Days  
Heating Degree Days 4 1  
Month to date heating degree days 9  
Since 1 July heating degree days 14  
Cooling Degree Days 0 5  
Month to date cooling degree days 55  
Year to date cooling degree days 2319  
Growing Degree Days 11 (Base 50)    
Moisture  
Dew Point 55 °F    
Average Humidity 83    
Maximum Humidity 97    
Minimum Humidity 63    
Precipitation  
Precipitation 0.00 in 0.14 in 3.13 in (1990)
Month to date precipitation 1.20  
Year to date precipitation 33.80  
Snow  
Snow 0.00 in - - ()
Month to date snowfall  
Since 1 July snowfall  
Since 1 September snowfall  
Snow Depth -    
Sea Level Pressure  
Sea Level Pressure 30.05 in    
Wind  
Wind Speed 6 mph (SSE)    
Max Wind Speed 13 mph    
Max Gust Speed 18 mph    
Visibility 10 miles    
Events      
T = Trace of Precipitation, MM = Missing Value Source: NWS Daily Summary

Daily Weather History Graph

Daily Weather History Graph

Search for Another Location

Airport or City:

Trip Planner

Search our weather history database for the weather conditions in past years. The results will help you decide how hot, cold, wet, or windy it might be!

Date:

Astronomy

Oct. 09, 2012 Rise Set
Actual Time 7:20 AM CDT 6:55 PM CDT
Civil Twilight 6:55 AM CDT 7:19 PM CDT
Nautical Twilight 6:27 AM CDT 7:47 PM CDT
Astronomical Twilight 5:59 AM CDT 8:16 PM CDT
Moon 1:18 AM CDT (10/9) 3:03 PM CDT (10/9)
Length of Visible Light 12h 23m
Length of Day
11h 34m
Last Quarter, 36% of the Moon is Illuminated
Oct 9
Last Quarter
Oct 15
New
Oct 21
First Quarter
Oct 29
Full
Nov 6
Last Quarter

Hourly Weather History & Observations

Time (CDT) Temp. Dew Point Humidity Pressure Visibility Wind Dir Wind Speed Gust Speed Precip Events Conditions
12:15 AM 50.4 °F 46.4 °F 86% 30.13 in 10.0 mi SE 3.5 mph - N/A   Clear
12:35 AM 50.2 °F 46.4 °F 87% 30.12 in 10.0 mi SE 3.5 mph - N/A   Clear
12:55 AM 50.2 °F 46.8 °F 88% 30.11 in 10.0 mi SE 4.6 mph - N/A   Clear
1:15 AM 50.0 °F 46.9 °F 89% 30.11 in 10.0 mi SE 3.5 mph - N/A   Clear
1:35 AM 50.0 °F 46.8 °F 89% 30.11 in 10.0 mi SE 3.5 mph - N/A   Clear
1:55 AM 49.5 °F 46.8 °F 90% 30.11 in 10.0 mi SE 3.5 mph - N/A   Clear
2:35 AM 49.1 °F 46.8 °F 92% 30.12 in 10.0 mi Calm Calm - N/A   Clear
2:55 AM 48.4 °F 46.6 °F 93% 30.12 in 10.0 mi Calm Calm - N/A   Clear
3:15 AM 47.5 °F 46.4 °F 96% 30.11 in 10.0 mi ESE 3.5 mph - N/A   Clear
3:35 AM 47.3 °F 46.4 °F 97% 30.10 in 10.0 mi SE 3.5 mph - N/A   Clear
3:55 AM 47.5 °F 46.6 °F 97% 30.10 in 10.0 mi Calm Calm - N/A   Clear
4:15 AM 47.7 °F 46.8 °F 97% 30.10 in 10.0 mi SE 3.5 mph - N/A   Clear
4:35 AM 48.2 °F 46.9 °F 95% 30.10 in 10.0 mi SSE 3.5 mph - N/A   Clear
4:55 AM 48.9 °F 48.0 °F 97% 30.10 in 10.0 mi Calm Calm - N/A   Mostly Cloudy
5:15 AM 49.5 °F 48.6 °F 97% 30.10 in 10.0 mi SSE 3.5 mph - N/A   Overcast
5:35 AM 50.4 °F 49.3 °F 96% 30.10 in 10.0 mi SSE 4.6 mph - N/A   Overcast
5:55 AM 50.9 °F 49.6 °F 95% 30.10 in 10.0 mi SSE 8.1 mph - N/A   Overcast
6:15 AM 51.4 °F 49.6 °F 94% 30.10 in 10.0 mi SSE 8.1 mph - N/A   Overcast
6:35 AM 51.4 °F 49.3 °F 92% 30.11 in 10.0 mi SE 6.9 mph - N/A   Overcast
6:55 AM 51.6 °F 49.3 °F 92% 30.11 in 10.0 mi SSE 6.9 mph - N/A   Overcast
7:15 AM 51.8 °F 49.3 °F 91% 30.11 in 10.0 mi SSE 8.1 mph - N/A   Overcast
7:35 AM 51.8 °F 49.3 °F 91% 30.11 in 10.0 mi SSE 6.9 mph - N/A   Overcast
7:55 AM 51.8 °F 49.1 °F 90% 30.11 in 10.0 mi SSE 5.8 mph - N/A   Overcast
8:15 AM 51.8 °F 49.1 °F 90% 30.12 in 10.0 mi SSE 6.9 mph - N/A   Overcast
8:35 AM 51.8 °F 49.1 °F 90% 30.12 in 10.0 mi SSE 6.9 mph - N/A   Overcast
8:55 AM 52.3 °F 49.1 °F 89% 30.12 in 10.0 mi SSE 8.1 mph - N/A   Overcast
9:15 AM 52.7 °F 49.3 °F 88% 30.12 in 10.0 mi SSE 5.8 mph - N/A   Overcast
9:35 AM 53.6 °F 49.6 °F 86% 30.12 in 10.0 mi SSE 8.1 mph - N/A   Overcast
9:55 AM 54.7 °F 50.4 °F 85% 30.12 in 10.0 mi SSE 6.9 mph - N/A   Overcast
10:15 AM 56.1 °F 51.3 °F 84% 30.12 in 10.0 mi SSE 6.9 mph - N/A   Overcast
10:35 AM 57.2 °F 51.8 °F 82% 30.12 in 10.0 mi South 8.1 mph - N/A   Overcast
10:55 AM 58.1 °F 52.7 °F 82% 30.12 in 10.0 mi South 8.1 mph - N/A   Overcast
11:15 AM 59.2 °F 52.9 °F 80% 30.11 in 10.0 mi SSE 6.9 mph - N/A   Overcast
11:35 AM 61.7 °F 54.7 °F 78% 30.10 in 10.0 mi SSE 9.2 mph - N/A   Overcast
11:55 AM 62.8 °F 54.9 °F 75% 30.10 in 10.0 mi South 9.2 mph - N/A   Overcast
12:15 PM 64.0 °F 55.8 °F 74% 30.09 in 10.0 mi South 9.2 mph - N/A   Overcast
12:35 PM 65.3 °F 56.3 °F 73% 30.08 in 10.0 mi South 9.2 mph - N/A   Overcast
1:15 PM 68.0 °F 56.8 °F 67% 30.06 in 10.0 mi South 6.9 mph - N/A   Overcast
1:35 PM 70.0 °F 57.7 °F 65% 30.04 in 10.0 mi South 9.2 mph - N/A   Mostly Cloudy
1:55 PM 70.9 °F 58.1 °F 64% 30.03 in 10.0 mi SSE 12.7 mph 16.1 mph N/A   Scattered Clouds
2:15 PM 71.1 °F 58.5 °F 64% 30.02 in 10.0 mi SSE 10.4 mph - N/A   Scattered Clouds
2:35 PM 70.9 °F 59.0 °F 66% 30.01 in 10.0 mi South 10.4 mph 16.1 mph N/A   Mostly Cloudy
2:55 PM 72.5 °F 59.2 °F 63% 30.00 in 10.0 mi SSE 12.7 mph 18.4 mph N/A   Mostly Cloudy
3:15 PM 72.7 °F 60.1 °F 64% 29.99 in 10.0 mi South 11.5 mph 17.3 mph N/A   Mostly Cloudy
3:35 PM 72.5 °F 59.9 °F 64% 29.97 in 10.0 mi South 12.7 mph 17.3 mph N/A   Mostly Cloudy
4:15 PM 74.7 °F 61.5 °F 63% 29.96 in 10.0 mi SSE 10.4 mph - N/A   Mostly Cloudy
4:35 PM 73.8 °F 61.0 °F 64% 29.97 in 10.0 mi South 12.7 mph 18.4 mph N/A   Mostly Cloudy
4:55 PM 75.2 °F 62.1 °F 64% 29.96 in 10.0 mi SSW 8.1 mph - N/A   Mostly Cloudy
5:15 PM 74.8 °F 61.9 °F 64% 29.95 in 10.0 mi SSW 9.2 mph 17.3 mph N/A   Scattered Clouds
5:35 PM 73.6 °F 62.4 °F 68% 29.95 in 10.0 mi South 9.2 mph - N/A   Scattered Clouds
5:55 PM 73.4 °F 62.8 °F 69% 29.95 in 10.0 mi South 5.8 mph - N/A   Scattered Clouds
6:15 PM 73.0 °F 63.1 °F 71% 29.94 in 10.0 mi South 8.1 mph - N/A   Mostly Cloudy
6:35 PM 72.5 °F 63.5 °F 73% 29.94 in 10.0 mi South 6.9 mph - N/A   Scattered Clouds
6:55 PM 70.9 °F 63.9 °F 78% 29.94 in 10.0 mi SSE 4.6 mph - N/A   Clear
7:15 PM 69.8 °F 64.2 °F 82% 29.95 in 10.0 mi Calm Calm - N/A   Clear
7:35 PM 69.3 °F 64.2 °F 84% 29.95 in 10.0 mi SSE 3.5 mph - N/A   Mostly Cloudy
7:55 PM 69.3 °F 64.4 °F 84% 29.95 in 10.0 mi SSE 3.5 mph - N/A   Overcast
8:15 PM 69.3 °F 64.4 °F 84% 29.96 in 10.0 mi SSE 3.5 mph - N/A   Mostly Cloudy
8:35 PM 69.6 °F 64.4 °F 83% 29.97 in 10.0 mi SSE 5.8 mph - N/A   Overcast
8:55 PM 69.8 °F 64.4 °F 83% 29.98 in 10.0 mi South 5.8 mph - N/A   Mostly Cloudy
9:15 PM 69.6 °F 64.4 °F 83% 29.98 in 10.0 mi South 5.8 mph - N/A   Scattered Clouds
9:35 PM 69.8 °F 64.4 °F 83% 30.00 in 10.0 mi South 9.2 mph - N/A   Scattered Clouds
9:55 PM 69.8 °F 64.4 °F 83% 29.99 in 10.0 mi South 9.2 mph - N/A   Scattered Clouds
10:15 PM 69.3 °F 64.4 °F 84% 30.01 in 10.0 mi South 8.1 mph - N/A   Scattered Clouds
10:35 PM 68.9 °F 64.4 °F 86% 30.01 in 10.0 mi South 8.1 mph - N/A   Clear
10:55 PM 68.0 °F 64.4 °F 88% 30.01 in 10.0 mi South 10.4 mph - N/A   Clear
11:15 PM 67.5 °F 64.4 °F 90% 30.01 in 10.0 mi South 9.2 mph - N/A   Clear
11:35 PM 67.1 °F 64.4 °F 91% 30.02 in 10.0 mi South 8.1 mph - N/A   Clear
11:55 PM 67.1 °F 64.4 °F 91% 30.03 in 10.0 mi South 6.9 mph - N/A   Mostly Cloudy